Weather History for New Richmond, WI

Change the Weather History Date:

Friday, February 15, 2013

  Actual Average (KMSP) Record (KMSP)
Temperature  
Mean Temperature 9 °F 21 °F  
Max Temperature 15 °F 29 °F 63 °F (1921)
Min Temperature 3 °F 13 °F -25 °F (1875)
Degree Days  
Heating Degree Days 56 44  
Month to date heating degree days 696  
Since 1 July heating degree days 5250  
Cooling Degree Days 0 0  
Month to date cooling degree days 0  
Year to date cooling degree days 0  
Moisture  
Dew Point 0 °F    
Average Humidity 69    
Maximum Humidity 85    
Minimum Humidity 53    
Precipitation  
Precipitation 0.00 in 0.03 in 0.87 in (1967)
Month to date precipitation 0.35  
Year to date precipitation 1.25  
Snow  
Snow 0.00 in 0.30 in 8.50 in (1967)
Month to date snowfall 3.9  
Since 1 July snowfall 37.9  
Snow Depth -    
Sea Level Pressure  
Sea Level Pressure 30.22 in    
Wind  
Wind Speed 8 mph (WNW)    
Max Wind Speed 16 mph    
Max Gust Speed 18 mph    
Visibility 10 miles    
Events      
T = Trace of Precipitation, MM = Missing Value Source: NWS Daily Summary

Daily Weather History Graph

Daily Weather History Graph

Search for Another Location

Airport:

Trip Planner

Search our weather history database for the weather conditions in past years. The results will help you decide how hot, cold, wet, or windy it might be!

Date:

Astronomy

Feb. 15, 2013 Rise Set
Actual Time 7:10 AM CST 5:38 PM CST
Civil Twilight 6:40 AM CST 6:08 PM CST
Nautical Twilight 6:06 AM CST 6:43 PM CST
Astronomical Twilight 5:32 AM CST 7:17 PM CST
Moon 9:29 AM CST (2/15) 11:59 PM CST (2/15)
Length of Visible Light 11h 27m
Length of Day
10h 27m
Waxing Crescent, 30% of the Moon is Illuminated
Feb 15
Waxing Crescent
Feb 17
First Quarter
Feb 25
Full
Mar 4
Last Quarter
Mar 11
New

Hourly Weather History & Observations

Time (CST) Temp. Windchill Dew Point Humidity Pressure Visibility Wind Dir Wind Speed Gust Speed Precip Events Conditions
12:15 AM 12.2 °F 2.9 °F 1.4 °F 62% 30.14 in 10.0 mi WNW 5.8 mph - N/A   Clear
12:35 AM 12.2 °F 2.9 °F 1.4 °F 62% 30.14 in 10.0 mi WNW 5.8 mph - N/A   Scattered Clouds
12:55 AM 10.4 °F 0.8 °F 1.4 °F 67% 30.14 in 10.0 mi WNW 5.8 mph - N/A   Overcast
1:15 AM 10.4 °F 0.8 °F 1.4 °F 67% 30.14 in 10.0 mi West 5.8 mph - N/A   Mostly Cloudy
1:35 AM 8.6 °F -3.7 °F 1.4 °F 73% 30.14 in 10.0 mi WNW 8.1 mph - N/A   Scattered Clouds
1:55 AM 10.4 °F -3.3 °F 1.4 °F 67% 30.14 in 10.0 mi WNW 10.4 mph - N/A   Scattered Clouds
2:15 AM 10.4 °F -2.4 °F 1.4 °F 67% 30.14 in 10.0 mi WNW 9.2 mph - N/A   Scattered Clouds
2:35 AM 10.4 °F 0.8 °F 1.4 °F 67% 30.14 in 10.0 mi WNW 5.8 mph - N/A   Mostly Cloudy
2:55 AM 8.6 °F 2.0 °F -0.4 °F 67% 30.15 in 10.0 mi West 3.5 mph - N/A   Overcast
3:15 AM 8.6 °F 0.1 °F 1.4 °F 73% 30.15 in 10.0 mi West 4.6 mph - N/A   Overcast
3:35 AM 6.8 °F -0.1 °F 1.4 °F 79% 30.15 in 10.0 mi West 3.5 mph - N/A   Mostly Cloudy
3:55 AM 5.0 °F -2.1 °F -0.4 °F 78% 30.16 in 10.0 mi West 3.5 mph - N/A   Mostly Cloudy
4:15 AM 5.0 °F -2.1 °F -0.4 °F 78% 30.16 in 10.0 mi WSW 3.5 mph - N/A   Mostly Cloudy
4:35 AM 5.0 °F -6.9 °F 1.4 °F 85% 30.17 in 10.0 mi West 6.9 mph - N/A   Overcast
4:55 AM 8.6 °F -2.6 °F 1.4 °F 73% 30.17 in 10.0 mi West 6.9 mph - N/A   Overcast
5:15 AM 8.6 °F -3.7 °F 3.2 °F 79% 30.17 in 10.0 mi West 8.1 mph - N/A   Overcast
5:35 AM 8.6 °F -3.7 °F 1.4 °F 73% 30.18 in 10.0 mi WNW 8.1 mph - N/A   Mostly Cloudy
5:55 AM 5.0 °F -5.6 °F -0.4 °F 78% 30.18 in 10.0 mi WNW 5.8 mph - N/A   Scattered Clouds
6:15 AM 3.2 °F -6.2 °F -0.4 °F 85% 30.19 in 10.0 mi WNW 4.6 mph - N/A   Scattered Clouds
6:35 AM 3.2 °F -6.2 °F -2.2 °F 78% 30.19 in 10.0 mi WNW 4.6 mph - N/A   Clear
6:55 AM 5.0 °F -6.9 °F -0.4 °F 78% 30.20 in 10.0 mi NW 6.9 mph - N/A   Clear
7:15 AM 3.2 °F -9.1 °F -0.4 °F 85% 30.21 in 10.0 mi NW 6.9 mph - N/A   Clear
7:35 AM 3.2 °F -7.8 °F -4.0 °F 72% 30.22 in 10.0 mi NW 5.8 mph - N/A   Clear
7:55 AM 3.2 °F -11.3 °F -0.4 °F 85% 30.22 in 10.0 mi NW 9.2 mph - N/A   Clear
8:15 AM 3.2 °F -9.1 °F -0.4 °F 85% 30.23 in 10.0 mi NW 6.9 mph - N/A   Clear
8:35 AM 5.0 °F -10.8 °F -0.4 °F 78% 30.24 in 10.0 mi NW 11.5 mph - N/A   Clear
8:55 AM 5.0 °F -10.0 °F -0.4 °F 78% 30.24 in 10.0 mi NW 10.4 mph - N/A   Clear
9:15 AM 5.0 °F -9.1 °F -0.4 °F 78% 30.24 in 10.0 mi NNW 9.2 mph - N/A   Clear
9:35 AM 8.6 °F -7.7 °F 1.4 °F 73% 30.25 in 10.0 mi NNW 13.8 mph - N/A   Clear
9:55 AM 8.6 °F -6.3 °F 1.4 °F 73% 30.25 in 10.0 mi NW 11.5 mph - N/A   Clear
10:15 AM 8.6 °F -7.7 °F 1.4 °F 73% 30.25 in 10.0 mi NNW 13.8 mph - N/A   Clear
10:35 AM 8.6 °F -5.5 °F 1.4 °F 73% 30.25 in 10.0 mi NW 10.4 mph - N/A   Clear
10:55 AM 10.4 °F -4.1 °F 1.4 °F 67% 30.26 in 10.0 mi NNW 11.5 mph - N/A   Clear
11:15 AM 10.4 °F -2.4 °F 1.4 °F 67% 30.26 in 10.0 mi NW 9.2 mph - N/A   Clear
11:55 AM 12.2 °F -1.0 °F 1.4 °F 62% 30.25 in 10.0 mi NW 10.4 mph - N/A   Clear
12:15 PM 12.2 °F -1.8 °F 1.4 °F 62% 30.25 in 10.0 mi NW 11.5 mph - N/A   Clear
12:35 PM 12.2 °F -1.8 °F 1.4 °F 62% 30.25 in 10.0 mi WNW 11.5 mph - N/A   Clear
12:55 PM 12.2 °F -1.0 °F 1.4 °F 62% 30.24 in 10.0 mi WNW 10.4 mph - N/A   Clear
1:15 PM 14.0 °F 1.2 °F 1.4 °F 57% 30.24 in 10.0 mi NW 10.4 mph - N/A   Clear
1:35 PM 14.0 °F 2.0 °F 1.4 °F 57% 30.24 in 10.0 mi NW 9.2 mph - N/A   Clear
1:55 PM 14.0 °F -2.0 °F 1.4 °F 57% 30.23 in 10.0 mi NW 16.1 mph - N/A   Clear
2:15 PM 14.0 °F -1.4 °F 1.4 °F 57% 30.24 in 10.0 mi NW 15.0 mph 18.4 mph N/A   Clear
2:35 PM 14.0 °F 2.0 °F 1.4 °F 57% 30.24 in 10.0 mi NW 9.2 mph - N/A   Clear
2:55 PM 15.8 °F 3.4 °F 1.4 °F 53% 30.24 in 10.0 mi WNW 10.4 mph - N/A   Clear
3:15 PM 15.8 °F 2.1 °F 1.4 °F 53% 30.24 in 10.0 mi NW 12.7 mph - N/A   Clear
3:35 PM 15.8 °F 2.7 °F 1.4 °F 53% 30.24 in 10.0 mi NW 11.5 mph - N/A   Clear
3:55 PM 14.0 °F 0.5 °F 1.4 °F 57% 30.24 in 10.0 mi NW 11.5 mph 17.3 mph N/A   Clear
4:15 PM 14.0 °F -0.8 °F 1.4 °F 57% 30.24 in 10.0 mi NW 13.8 mph - N/A   Clear
4:35 PM 14.0 °F -0.2 °F 1.4 °F 57% 30.25 in 10.0 mi NW 12.7 mph - N/A   Clear
4:55 PM 14.0 °F 2.9 °F 1.4 °F 57% 30.25 in 10.0 mi NW 8.1 mph - N/A   Clear
5:15 PM 14.0 °F 1.2 °F -0.4 °F 53% 30.25 in 10.0 mi NW 10.4 mph - N/A   Clear
5:35 PM 12.2 °F -0.2 °F -0.4 °F 57% 30.25 in 10.0 mi NW 9.2 mph - N/A   Clear
5:55 PM 12.2 °F 2.9 °F -0.4 °F 57% 30.25 in 10.0 mi WNW 5.8 mph - N/A   Clear
6:15 PM 10.4 °F 0.8 °F -0.4 °F 62% 30.25 in 10.0 mi West 5.8 mph - N/A   Scattered Clouds
6:35 PM 10.4 °F -0.4 °F -0.4 °F 62% 30.25 in 10.0 mi West 6.9 mph - N/A   Mostly Cloudy
6:55 PM 8.6 °F -1.3 °F -2.2 °F 62% 30.25 in 10.0 mi WSW 5.8 mph - N/A   Scattered Clouds
7:15 PM 5.0 °F -4.1 °F -4.0 °F 66% 30.25 in 10.0 mi WSW 4.6 mph - N/A   Mostly Cloudy
7:35 PM 8.6 °F -2.6 °F -0.4 °F 67% 30.24 in 10.0 mi West 6.9 mph - N/A   Mostly Cloudy
7:55 PM 8.6 °F -2.6 °F -0.4 °F 67% 30.24 in 10.0 mi WSW 6.9 mph - N/A   Overcast
8:15 PM 8.6 °F -2.6 °F -0.4 °F 67% 30.24 in 10.0 mi West 6.9 mph - N/A   Mostly Cloudy
8:35 PM 8.6 °F -2.6 °F -0.4 °F 67% 30.23 in 10.0 mi WSW 6.9 mph - N/A   Scattered Clouds
8:55 PM 8.6 °F -3.7 °F -0.4 °F 67% 30.23 in 10.0 mi WSW 8.1 mph - N/A   Mostly Cloudy
9:15 PM 8.6 °F -4.7 °F -0.4 °F 67% 30.23 in 10.0 mi West 9.2 mph - N/A   Mostly Cloudy
9:35 PM 8.6 °F -3.7 °F 1.4 °F 73% 30.23 in 10.0 mi West 8.1 mph - N/A   Mostly Cloudy
9:55 PM 8.6 °F -3.7 °F 1.4 °F 73% 30.22 in 10.0 mi West 8.1 mph - N/A   Overcast
10:15 PM 6.8 °F -5.9 °F -0.4 °F 72% 30.23 in 10.0 mi West 8.1 mph - N/A   Mostly Cloudy
10:35 PM 5.0 °F -6.9 °F -0.4 °F 78% 30.23 in 10.0 mi WNW 6.9 mph - N/A   Scattered Clouds
10:55 PM 5.0 °F -5.6 °F -0.4 °F 78% 30.23 in 10.0 mi WNW 5.8 mph - N/A   Clear
11:15 PM 5.0 °F -6.9 °F -0.4 °F 78% 30.22 in 10.0 mi WNW 6.9 mph - N/A   Clear
11:35 PM 5.0 °F -6.9 °F -0.4 °F 78% 30.22 in 10.0 mi WNW 6.9 mph - N/A   Clear
11:55 PM 5.0 °F -6.9 °F -0.4 °F 78% 30.21 in 10.0 mi NW 6.9 mph - N/A   Clear